EW8354 Tomares ES current weather conditions

sailwx.info

Wind from 021

Air temperature 14.4° C
Dewpoint 10.7° C

Last reported at 2020-Jan-17 18:01 UTC.
Time now 2020-Jan-17 18:17 UTC

Location: N 37°22' W 006°03'.
View on Google Maps.

See reports from other nearby stations

  
Tides and Currents Weather Stations Pressure Air Temp Water Temp Dewpoint Dewpoint Depression Visibility Wind Speed Wind Dir Waves Ship Positions
date/time (UTC)wind fromknots sea level pressurealtimeterstation pressurevisibilityair tempwater tempwave heightnotes
2020-Jan-17 18:01 021 14.4
2020-Jan-17 17:49 021 15.0
2020-Jan-17 17:31 021 15.6
2020-Jan-17 17:16 021 16.1
2020-Jan-17 17:02 021 16.7
2020-Jan-17 16:46 021 16.7
2020-Jan-17 16:31 021 16.7
2020-Jan-17 16:17 021 16.7
2020-Jan-17 16:01 021 16.7
2020-Jan-17 15:46 021 16.7
2020-Jan-17 15:31 021 16.7
2020-Jan-17 15:16 021 16.1
2020-Jan-17 15:01 021 16.1
2020-Jan-17 14:46 021 16.1
2020-Jan-17 14:31 021 15.6
2020-Jan-17 14:16 021 15.6
2020-Jan-17 14:01 021 15.6
2020-Jan-17 13:45 021 15.6
2020-Jan-17 13:31 020 15.6
2020-Jan-17 13:15 020 15.0
2020-Jan-17 13:00 015 15.0
2020-Jan-17 12:45 322 14.4
2020-Jan-17 12:31 321 13.9
2020-Jan-17 12:15 321 13.9
2020-Jan-17 12:00 310 13.3
2020-Jan-17 11:46 310 13.3
2020-Jan-17 11:30 309 12.8
2020-Jan-17 11:15 302 12.8
2020-Jan-17 11:00 295 12.2
2020-Jan-17 10:46 276 12.2
2020-Jan-17 10:30 269 12.2
2020-Jan-17 10:15 263 12.2
2020-Jan-17 10:00 263 11.7
2020-Jan-17 09:45 263 11.7
2020-Jan-17 09:30 263 11.1
2020-Jan-17 09:17 263 11.1
2020-Jan-17 09:04 256 11.1
2020-Jan-17 08:46 256 11.1
2020-Jan-17 08:31 256 11.1
2020-Jan-17 08:16 256 10.6
2020-Jan-17 08:01 256 10.6
2020-Jan-17 07:48 249 10.6
2020-Jan-17 07:31 249 10.6
2020-Jan-17 07:17 249 10.6
2020-Jan-17 07:01 249 10.6
2020-Jan-17 06:46 249 10.6
2020-Jan-17 06:31 249 10.6
2020-Jan-17 06:16 238 10.6
2020-Jan-17 06:01 235 10.6
2020-Jan-17 05:46 234 11.1
2020-Jan-17 05:30 234 11.1
2020-Jan-17 05:16 234 11.1
2020-Jan-17 05:02 234 11.1
2020-Jan-17 04:46 234 11.1
2020-Jan-17 04:32 234 11.1
2020-Jan-17 04:16 234 11.1
2020-Jan-17 04:01 234 11.1
2020-Jan-17 03:46 234 11.1
2020-Jan-17 03:31 234 11.1
2020-Jan-17 03:16 234 11.1
2020-Jan-17 03:02 234 11.1
2020-Jan-17 02:46 234 11.1
2020-Jan-17 02:31 234 10.6
2020-Jan-17 02:15 234 11.1
2020-Jan-17 02:00 234 11.1
2020-Jan-17 01:46 234 10.6
2020-Jan-17 01:30 234 10.6
2020-Jan-17 01:16 234 10.0
2020-Jan-17 01:00 234 10.0
2020-Jan-17 00:45 234 10.0
2020-Jan-17 00:30 234 10.6
2020-Jan-17 00:15 234 10.6
2020-Jan-17 00:00 234 10.6
2020-Jan-16 23:45 234 10.6
2020-Jan-16 23:30 234 10.6
2020-Jan-16 23:15 234 10.6
2020-Jan-16 23:01 234 10.6
2020-Jan-16 22:45 234 10.6
2020-Jan-16 22:31 234 10.6
2020-Jan-16 22:15 234 10.6
2020-Jan-16 22:00 234 10.6
2020-Jan-16 21:45 234 10.6
2020-Jan-16 21:30 234 11.1
2020-Jan-16 21:15 234 11.1
2020-Jan-16 21:00 234 11.1
2020-Jan-16 20:45 234 11.1
2020-Jan-16 20:30 234 11.7
2020-Jan-16 20:15 234 11.7
2020-Jan-16 20:00 234 11.7
2020-Jan-16 19:45 234 12.2
2020-Jan-16 19:30 234 12.2
2020-Jan-16 19:15 234 12.2
2020-Jan-16 19:01 233 12.2
2020-Jan-16 18:46 232 12.8
2020-Jan-16 18:32 227 12.8
2020-Jan-16 18:18 227 13.3
2020-Jan-16 18:04 224 13.9
2020-Jan-16 17:47 218 14.4
2020-Jan-16 17:33 217 15.0
2020-Jan-16 17:17 219 15.6
2020-Jan-16 17:02 219 16.7
2020-Jan-16 16:48 210 17.2
2020-Jan-16 16:32 203 17.8
2020-Jan-16 16:16 281 17.8
2020-Jan-16 16:01 236 17.8
2020-Jan-16 15:46 193 18.3
2020-Jan-16 15:32 162 17.8
2020-Jan-16 15:17 175 1 gusting 9 17.8
2020-Jan-16 15:01 176 18.3
2020-Jan-16 14:47 172 17.8
2020-Jan-16 14:31 186 18.3
2020-Jan-16 14:16 204 17.8
2020-Jan-16 14:02 213 17.2
2020-Jan-16 13:46 034 17.2
2020-Jan-16 13:31 032 16.7
2020-Jan-16 13:16 032 16.1
2020-Jan-16 13:01 032 16.1
2020-Jan-16 12:46 032 15.0
2020-Jan-16 12:31 032 15.0
2020-Jan-16 12:16 031 13.9
2020-Jan-16 12:01 030 13.9
2020-Jan-16 11:45 028 13.3
2020-Jan-16 11:30 030 12.8
2020-Jan-16 11:15 025 12.2
2020-Jan-16 11:00 025 11.7
2020-Jan-16 10:45 026 11.1
2020-Jan-16 10:30 022 10.6
2020-Jan-16 10:15 020 0 gusting 5 10.0
2020-Jan-16 10:00 006 9.4
2020-Jan-16 09:45 018 8.9
2020-Jan-16 09:32 017 8.9
2020-Jan-16 09:16 019 8.9
2020-Jan-16 09:02 017 8.3
2020-Jan-16 08:49 017 8.3
2020-Jan-16 08:31 014 7.8
2020-Jan-16 08:19 011 7.8
2020-Jan-16 08:02 011 7.8
2020-Jan-16 07:46 005 7.8
2020-Jan-16 07:32 005 7.8
2020-Jan-16 07:17 002 7.8
2020-Jan-16 07:00 359 7.8
2020-Jan-16 06:46 358 7.8
2020-Jan-16 06:31 358 7.8
2020-Jan-16 06:16 356 8.3
2020-Jan-16 06:01 356 8.3
2020-Jan-16 05:46 356 8.3
2020-Jan-16 05:31 355 8.3
2020-Jan-16 05:16 351 8.3
2020-Jan-16 05:01 349 8.3
2020-Jan-16 04:46 286 8.9
2020-Jan-16 04:30 219 8.9
2020-Jan-16 04:17 206 8.9
2020-Jan-16 04:00 206 8.9
2020-Jan-16 03:46 206 8.9
2020-Jan-16 03:31 206 9.4
2020-Jan-16 03:16 206 9.4
2020-Jan-16 03:00 206 9.4
2020-Jan-16 02:45 206 9.4
2020-Jan-16 02:30 206 9.4
2020-Jan-16 02:16 206 10.0
2020-Jan-16 02:00 206 10.0
2020-Jan-16 01:46 206 10.0
2020-Jan-16 01:30 206 10.0
2020-Jan-16 01:15 206 10.6
2020-Jan-16 01:00 206 10.6
2020-Jan-16 00:45 206 10.6
2020-Jan-16 00:30 206 11.1
2020-Jan-16 00:15 206 11.1
2020-Jan-16 00:00 206 11.1
2020-Jan-15 23:45 206 11.1
2020-Jan-15 23:30 206 11.7
2020-Jan-15 23:17 206 11.1
2020-Jan-15 23:02 206 11.1
2020-Jan-15 22:46 206 10.6
2020-Jan-15 22:32 206 10.6
2020-Jan-15 22:16 206 10.6
2020-Jan-15 22:02 206 11.1
2020-Jan-15 21:49 206 11.1
2020-Jan-15 21:31 206 11.7
2020-Jan-15 21:18 206 11.7
2020-Jan-15 21:01 206 11.7
2020-Jan-15 20:46 206 11.7
2020-Jan-15 20:31 206 11.7
2020-Jan-15 20:17 206 11.7
2020-Jan-15 20:02 206 12.2
2020-Jan-15 19:47 206 12.8
2020-Jan-15 19:32 206 13.3
2020-Jan-15 19:16 211 13.3
2020-Jan-15 19:01 215 13.9
2020-Jan-15 18:46 211 13.9
2020-Jan-15 18:31 215 14.4
2020-Jan-15 18:17 214 14.4
2020-Jan-15 18:02 215 15.0